Погода в Мегино-Алдане

Россия / Республика Саха (Якутия)     62°41′55″N   134°37′17″E
темп.,
°C
ветер,
м/с
пор.,
м/с
влажн.,
%
обл.,
%
осадки,
мм/ч
давл.,
гПа
погр.,
м
27 февраля, сб
сб2700:00−35св009921 0.0 103419
03:00−36вюв119910 0.0 103319
06:00−37св01990 0.0 103219
09:00−33в11950 0.0 103167
12:00−27св11860 0.0 1029286
15:00−25всв238616 0.0 1026326
18:00−30св12950 0.0 102419
21:00−32с11930 0.0 102219
28 февраля, вс
вс2800:00−32с119067 0.0 101919
03:00−31ссв128584 0.0 101619
06:00−29св1285100 0.0 101619
09:00−26ссз1184100 0.0 101664
12:00−21в2483100 0.0 1017298
15:00−19юв128082 0.0 1018470
18:00−24юз239494 0.0 102138
21:00−26юз239496 0.0 102252
1 марта, пн
пн100:00−26ююз2395100 0.0 102380
03:00−27зюз2497100 0.0 1024170
06:00−28зюз2297100 0.1 102576
09:00−27зюз1394100 0.1 1025217
12:00−25зюз1283100 0.0 1025662
15:00−24з1282100 0.1 1025802
18:00−27юз1196100 0.1 102619
21:00−29зюз1297100 0.1 102619
2 марта, вт
вт200:00−30з119796 0.0 102619
03:00−32з119897 0.0 102619
06:00−33з119898 0.0 102619
09:00−31з119697 0.0 102660
12:00−27зсз1287100 0.0 1025438
15:00−26зсз1287100 0.1 1025586
18:00−28ссв0099100 0.1 102519
21:00−28ю0198100 0.2 102619
3 марта, ср
ср300:00−28ююз0098100 0.1 102519
03:00−29в0099100 0.1 102519
06:00−29ссз0098100 0.1 102419
09:00−28ссз0196100 0.1 1023164
12:00−25сз1187100 0.1 1021512
15:00−25сз1283100 0.1 1020672
18:00−29зсз1196100 0.0 101919
21:00−30зюз1297100 0.0 101719